Wind_Speed
16 15 15 14 14 14 13 13 13 12 12 12 11 11 11 10 10 10 9 9 8 8 8 7 7 7 6 6 5 5 4 4 4 4 4 4 4 4 5 5 5 5 6 6 6 7 7 8 8 8 8 9 9 9 9 9 8 9 9 8 9 9 10 10 11 11 11 10 10
17 16 15 15 15 14 14 14 13 12 12 12 11 11 11 11 10 10 9 9 9 8 8 7 7 7 7 6 6 5 5 5 5 5 5 5 5 5 5 5 5 5 6 6 7 7 7 8 8 8 9 9 9 9 9 8 8 8 8 8 8 8 9 9 10 10 10 10 10
17 17 16 16 16 15 15 14 13 13 12 12 12 11 11 11 10 10 9 9 9 8 8 8 7 7 7 6 6 6 5 5 5 5 5 5 5 5 5 5 5 5 6 6 7 7 7 8 8 8 8 8 8 8 8 8 8 8 8 8 8 8 8 9 9 9 10 9 9
18 18 17 17 17 16 16 15 14 14 13 13 12 12 11 11 11 10 10 9 9 9 8 8 8 7 7 7 6 6 6 6 6 6 6 6 6 5 5 6 6 6 6 6 7 7 7 8 8 8 8 8 8 7 7 7 7 7 7 7 7 7 8 8 8 9 9 9 9
20 19 19 19 18 18 17 16 16 15 14 13 13 12 12 11 11 10 10 10 9 9 8 8 8 8 7 7 7 7 7 7 6 6 6 6 6 6 6 6 6 6 6 6 7 7 7 7 7 7 7 7 7 6 6 6 6 6 7 7 7 7 7 8 8 8 8 9 8
21 21 21 20 20 19 18 18 17 16 15 14 14 13 12 12 11 11 11 10 10 9 9 8 8 8 8 8 8 8 7 7 7 7 7 6 6 6 6 6 6 6 6 6 7 7 7 7 7 7 6 6 6 5 5 5 5 5 6 6 6 6 7 7 7 8 8 8 8
23 22 22 21 21 20 19 18 17 16 16 15 14 14 13 12 12 12 11 11 10 9 9 9 8 8 8 8 8 8 8 8 7 7 7 7 7 7 7 7 7 7 7 7 6 6 6 6 6 6 6 5 5 4 4 4 4 4 5 5 5 5 6 6 7 7 7 8 8
24 23 23 22 21 20 19 19 18 17 16 16 15 15 14 13 13 12 12 11 10 10 9 9 9 9 9 9 9 8 8 8 8 8 8 8 8 7 7 7 7 7 7 7 6 6 6 6 6 6 5 4 4 3 3 3 3 3 4 4 5 5 5 6 6 7 7 8 8
25 24 23 22 21 20 20 19 18 17 17 16 16 15 15 14 13 13 12 12 11 10 10 9 9 9 9 9 9 9 8 8 8 8 8 8 8 8 7 7 7 7 7 7 6 6 6 6 5 5 4 4 3 2 2 2 2 2 3 4 4 5 5 6 6 7 7 8 8
26 25 24 23 22 21 20 19 18 18 17 17 16 16 15 14 14 13 13 12 11 10 10 10 10 10 9 9 9 9 9 9 9 9 9 9 8 8 8 7 7 7 7 7 6 6 6 5 5 4 4 3 2 2 1 1 1 2 3 3 4 5 6 6 7 7 8 9 9
27 26 24 23 22 21 20 20 19 18 18 17 16 16 15 14 14 13 12 11 11 11 10 10 10 10 10 10 9 9 9 9 9 9 9 9 8 8 8 8 7 7 7 7 6 6 5 5 5 4 3 3 2 2 1 1 1 2 3 3 4 5 6 7 7 7 8 9 9
28 26 25 24 23 22 21 20 19 18 18 17 16 15 15 14 14 13 12 11 11 11 11 10 10 10 10 10 10 10 10 10 10 10 9 9 9 8 8 8 8 7 7 7 6 6 5 5 4 4 3 3 2 2 2 2 2 2 3 4 4 5 6 7 7 7 8 9 9
28 27 26 25 23 22 21 21 20 19 18 17 16 15 15 14 14 13 12 12 12 11 11 10 10 10 10 10 10 10 10 10 10 10 9 9 9 8 8 8 8 8 7 7 6 6 5 5 4 4 3 3 3 3 3 3 3 3 4 4 5 5 6 6 6 7 7 8 9
29 28 27 26 24 23 22 21 20 19 18 17 16 15 15 14 13 13 12 12 12 11 11 10 10 10 10 10 10 10 10 10 10 10 9 9 9 8 8 8 8 8 7 7 6 6 5 5 4 4 4 3 3 3 3 3 4 4 4 5 5 5 5 6 6 6 7 8 8
30 29 28 27 25 24 23 22 20 19 18 17 16 16 15 14 14 13 13 13 12 11 11 11 11 11 11 11 10 10 10 10 10 10 9 9 9 9 8 8 8 8 7 7 6 6 5 5 5 4 4 4 4 4 4 4 4 4 5 5 5 5 5 5 6 6 7 7 8
31 30 29 27 26 25 24 22 21 20 18 18 17 16 15 15 14 14 13 13 12 12 12 11 11 11 11 11 11 10 10 10 10 9 9 9 9 9 9 8 8 8 7 7 6 5 5 5 5 5 5 5 4 4 4 4 4 4 5 5 5 5 5 6 6 6 7 8 8
32 31 29 28 27 25 24 22 21 20 19 18 17 16 16 15 15 14 14 13 13 12 12 12 11 11 11 11 11 10 10 10 10 9 9 9 9 9 9 9 8 8 7 6 6 6 5 6 6 5 5 5 5 4 5 4 4 5 5 5 5 6 6 6 6 7 7 8 9
32 31 30 28 27 25 24 22 21 20 19 18 17 17 16 16 15 15 14 14 14 13 12 12 11 11 11 11 10 10 10 10 9 9 9 9 9 9 9 8 8 7 7 6 6 6 6 6 6 6 5 5 5 5 5 5 5 5 5 6 6 6 7 7 7 7 8 9 9
33 32 30 28 27 25 24 23 21 20 19 18 18 17 17 16 16 15 15 14 14 13 13 12 11 11 11 11 10 10 10 9 9 9 9 9 9 9 9 8 8 7 7 7 7 7 7 6 6 6 5 5 5 5 5 5 5 5 6 6 7 7 7 7 8 8 8 9 9
33 32 30 29 27 26 24 23 22 20 19 19 18 18 17 17 16 16 15 15 14 13 13 12 12 11 11 11 10 10 10 9 9 9 9 9 9 9 9 8 8 8 7 7 7 7 7 6 6 6 5 5 4 4 5 5 5 6 6 7 7 8 8 8 8 8 9 9 10
33 32 31 29 28 26 24 23 22 20 19 18 18 18 17 17 17 16 16 15 14 14 13 12 12 11 11 11 10 10 9 9 9 9 9 10 10 9 9 9 8 8 8 7 7 7 7 6 6 5 5 5 4 4 4 5 5 6 6 7 7 8 8 8 8 8 9 10 10
33 32 31 29 27 26 24 22 21 19 18 17 17 17 17 17 17 17 17 16 15 14 13 12 12 12 11 11 10 10 10 9 9 9 10 10 9 9 9 9 8 8 8 8 8 7 7 6 6 5 5 5 4 4 4 4 5 5 6 7 7 8 8 8 8 8 9 9 10
33 32 30 29 27 25 23 21 19 17 17 17 18 18 18 18 18 18 17 16 15 14 13 13 13 12 11 11 10 10 10 10 10 10 10 10 9 9 9 9 9 9 9 9 8 8 7 6 6 5 5 5 5 5 4 4 4 5 6 7 8 9 9 9 9 9 9 9 10
33 31 30 29 27 25 23 21 19 19 19 19 20 20 20 20 19 19 18 16 15 14 14 13 13 12 12 11 11 10 10 10 10 10 10 10 9 9 9 9 9 9 9 10 9 8 7 6 6 5 5 5 4 4 4 4 4 5 5 7 8 9 10 10 10 10 9 9 10
33 31 31 29 28 27 25 24 23 22 22 22 22 22 22 21 20 19 18 17 16 15 14 14 13 13 12 11 11 11 11 10 10 10 10 9 9 9 9 9 10 10 11 10 9 8 7 6 6 5 5 4 4 4 4 4 4 5 5 6 7 8 10 11 11 11 11 11 11
33 32 32 31 30 30 29 28 27 26 25 24 24 24 23 22 21 20 19 17 16 16 15 14 14 13 12 12 11 11 11 11 11 10 10 10 10 10 10 10 11 12 11 10 8 7 6 6 5 5 4 4 4 4 4 4 4 5 5 6 6 7 7 8 10 11 12 12 12
34 33 33 32 32 32 32 32 31 29 27 26 25 24 24 23 22 21 19 18 17 16 15 14 14 13 12 12 12 11 11 11 11 10 10 10 10 10 10 11 12 12 11 9 7 7 6 6 5 5 4 4 3 3 3 4 4 5 5 5 6 6 5 5 5 7 10 12 12
35 34 34 33 33 34 35 35 34 32 30 27 26 25 24 23 22 21 19 18 17 16 15 14 14 13 13 12 12 12 11 11 11 11 11 11 11 11 11 11 12 12 11 8 7 7 6 6 5 5 4 4 4 3 3 4 4 4 4 5 5 5 5 4 4 6 7 9 10
37 36 35 34 35 36 36 36 36 34 32 30 27 26 25 24 23 22 21 19 17 16 15 15 14 13 13 13 12 12 11 11 11 11 11 11 11 11 11 12 13 12 10 8 7 7 6 6 5 5 4 4 4 3 4 4 4 4 4 4 5 5 5 5 6 6 7 8 9
39 38 37 37 37 38 38 38 38 37 34 32 29 27 26 25 25 24 22 20 17 16 16 15 14 14 13 13 12 12 12 12 12 12 12 12 12 11 12 12 12 11 9 8 7 7 6 5 5 4 4 4 3 3 3 3 4 4 4 5 5 5 6 6 6 7 7 7 8
41 41 41 41 41 41 40 39 38 37 35 32 30 28 27 27 26 25 23 20 18 17 16 15 14 14 13 13 12 12 12 12 12 12 12 12 12 11 11 12 12 11 9 8 7 6 6 5 4 4 4 4 3 3 3 4 4 4 4 5 5 5 6 6 6 7 7 7 7
45 46 46 45 44 42 40 38 36 35 33 31 30 29 28 27 26 25 22 19 18 17 16 16 15 14 14 13 13 13 13 13 13 12 12 12 11 11 11 12 11 10 9 8 7 6 5 5 4 4 4 4 3 3 4 4 4 4 5 5 5 5 6 6 6 7 7 7 7
48 48 48 46 43 41 38 35 34 32 31 30 29 29 28 27 26 24 21 19 18 17 17 16 15 15 14 14 13 13 13 13 13 12 12 11 11 11 11 11 11 10 8 7 7 6 5 4 4 4 3 3 3 3 4 4 4 4 5 5 5 5 6 6 6 6 7 7 7
49 48 47 44 41 38 36 33 31 30 29 29 28 28 27 26 24 22 20 18 18 18 17 16 16 15 15 14 14 14 14 13 13 12 12 11 11 11 11 11 11 10 8 7 7 6 5 4 4 4 3 3 3 3 3 4 4 4 5 5 5 5 6 6 6 6 6 7 7
49 46 44 41 39 37 34 31 29 28 27 27 27 27 26 24 22 20 19 18 18 18 18 17 16 16 15 15 15 14 14 13 13 12 12 11 11 10 11 11 10 9 8 7 6 6 5 4 4 3 3 3 3 3 3 3 4 4 5 5 5 6 6 6 6 6 6 6 7
47 44 41 39 38 35 33 29 27 26 26 26 26 25 24 23 21 19 18 18 18 18 18 17 17 17 16 16 15 14 14 13 13 12 12 11 11 10 10 11 10 9 8 7 6 5 4 4 4 3 3 3 2 3 3 3 4 4 5 5 6 6 6 6 6 6 7 7 7
45 42 40 39 37 35 32 29 27 26 25 25 25 24 23 21 19 18 18 18 19 19 18 18 17 17 16 16 15 14 14 14 13 12 12 11 11 10 10 11 10 9 8 7 6 5 4 4 3 3 3 2 2 2 3 3 3 4 4 5 5 6 6 6 7 7 7 7 7
44 42 41 39 37 35 31 28 26 25 25 25 24 23 21 20 18 18 19 19 19 19 18 18 17 17 17 16 15 14 14 14 13 12 12 11 11 10 10 10 10 9 8 7 6 5 4 4 3 3 3 2 2 2 2 3 3 3 4 4 5 6 6 6 7 7 7 7 7
45 44 42 39 36 33 29 26 25 24 24 23 22 21 20 19 18 18 19 19 19 19 18 18 17 17 17 16 15 14 14 14 13 12 12 11 11 11 10 10 10 9 8 7 6 5 4 4 3 3 3 2 2 2 2 2 2 3 3 4 5 5 6 6 7 7 8 8 7
46 44 41 37 33 29 26 24 23 22 22 21 21 20 19 19 18 18 19 19 19 18 18 18 18 17 17 16 15 15 14 14 13 13 12 12 11 11 11 11 10 9 8 7 6 5 5 4 4 3 3 3 2 2 2 2 2 2 3 3 4 5 5 5 6 7 7 8 8
46 42 37 33 29 27 25 23 22 22 21 20 19 19 19 18 18 18 18 19 19 19 19 19 18 18 16 15 15 15 14 14 13 13 12 12 11 11 11 10 10 9 8 7 6 6 5 4 4 4 3 3 2 2 2 2 2 2 2 3 3 4 4 5 5 6 6 7 8
Wind_Direction
201 201 202 203 204 205 205 205 205 205 205 206 206 207 208 209 209 209 210 211 211 213 214 216 219 223 227 231 235 239 244 251 258 266 273 279 284 289 294 299 304 308 311 313 315 317 318 318 318 318 317 316 316 316 316 316 316 315 315 317 319 322 323 325 324 325 326 328 330
202 202 203 203 204 205 204 204 203 203 204 205 206 207 207 208 208 208 209 209 210 212 214 216 219 223 227 231 235 240 246 251 257 264 270 276 281 287 292 298 303 307 311 313 315 316 317 317 317 317 316 316 316 316 317 317 317 316 317 318 320 321 322 322 322 323 325 327 330
202 202 202 203 204 204 203 202 202 202 203 204 205 206 206 207 207 208 209 210 211 212 215 217 220 223 227 231 237 242 246 252 257 262 268 274 280 286 292 298 303 306 309 312 313 315 315 316 316 315 315 316 316 317 318 319 319 318 319 320 321 321 321 320 320 322 325 327 329
203 203 203 203 204 203 202 201 201 202 203 203 204 205 206 207 207 208 209 210 212 213 216 218 221 224 229 233 238 242 247 252 257 263 268 274 280 286 292 297 301 304 307 309 311 312 314 315 315 315 315 316 316 318 319 320 320 321 321 322 322 322 321 321 321 323 324 326 329
203 203 203 204 204 203 201 201 201 202 202 203 204 205 206 206 207 208 210 211 213 215 217 219 222 226 230 234 239 243 248 252 258 263 268 274 280 286 291 295 299 302 305 307 309 310 312 313 313 313 314 315 316 318 319 320 321 322 323 324 324 324 324 324 323 324 325 327 329
204 204 204 205 204 203 202 201 201 202 202 203 204 205 206 207 208 209 211 213 214 216 218 221 224 227 231 235 240 244 249 253 258 264 269 274 279 284 288 293 296 300 302 305 307 308 311 311 311 311 312 314 315 317 320 321 324 326 326 326 327 328 328 327 325 325 327 329 330
205 205 206 206 205 204 203 202 202 202 202 203 205 206 206 207 209 211 212 214 216 217 219 222 225 229 232 236 240 245 249 254 259 264 268 273 277 281 285 290 294 298 300 303 305 307 308 308 308 308 309 311 315 318 321 324 327 329 331 330 330 332 331 329 329 328 328 330 331
207 207 207 208 207 207 206 205 204 203 204 204 206 207 208 209 210 212 214 215 216 218 220 223 227 230 234 237 241 246 250 255 259 263 267 270 275 278 283 287 291 295 298 301 302 304 304 304 303 304 306 308 313 319 324 326 330 335 337 336 336 335 335 333 332 330 329 330 331
208 208 209 209 209 209 209 208 207 206 206 207 208 209 210 211 212 214 216 217 217 219 221 225 228 232 236 239 243 247 250 255 258 262 265 269 272 276 281 285 289 292 295 298 299 299 299 299 298 298 301 305 310 315 321 326 336 342 345 344 341 338 335 334 332 330 328 328 329
210 210 210 211 211 211 211 211 210 210 209 209 210 211 212 213 214 216 218 218 219 221 223 226 229 233 237 240 244 247 251 254 257 260 264 267 271 275 279 283 286 289 291 293 294 293 293 292 292 292 293 293 295 300 307 314 332 344 347 344 343 339 336 333 330 327 325 324 326
211 211 211 212 213 213 213 214 214 213 213 213 213 214 214 215 217 218 219 220 221 223 225 227 231 234 238 242 245 247 251 254 257 260 263 266 270 274 277 280 283 285 287 288 288 287 287 288 287 287 285 281 277 279 286 299 317 332 339 339 341 342 338 332 326 323 321 321 322
213 213 213 213 214 215 215 216 216 216 216 216 216 217 217 218 219 220 222 223 224 225 227 229 232 235 239 242 245 247 250 253 256 259 262 266 269 272 276 278 279 281 281 282 282 282 283 283 283 281 277 274 271 276 282 294 309 323 331 333 340 344 341 333 325 320 318 318 320
214 214 214 214 215 216 217 218 218 218 219 219 220 220 221 221 222 222 224 225 226 228 229 231 233 236 239 242 244 247 250 253 256 258 261 264 267 270 273 275 276 276 276 276 276 277 278 278 277 275 273 273 276 280 286 295 309 322 327 331 338 342 339 332 325 320 319 319 321
215 215 215 215 215 216 218 219 219 220 220 221 222 223 224 224 224 225 226 227 228 229 230 232 234 236 239 241 244 247 250 253 255 258 260 263 266 268 270 271 272 272 271 271 271 272 273 273 271 269 269 271 278 283 289 297 309 319 324 328 335 337 334 330 326 324 323 323 322
217 217 216 216 216 217 218 218 219 220 221 222 223 225 226 227 227 227 228 229 230 231 231 233 234 237 239 242 245 247 250 253 255 257 260 262 264 267 268 268 268 267 267 266 267 268 268 268 268 266 266 268 275 283 291 299 308 315 319 323 328 331 331 329 328 327 325 323 322
218 218 217 217 217 217 218 219 219 220 221 223 224 225 227 228 228 229 229 230 231 231 232 233 234 237 239 242 245 248 251 253 255 257 259 261 263 264 265 265 264 263 262 262 263 263 263 263 263 263 265 268 273 282 290 298 306 311 316 319 324 327 329 329 328 327 324 323 321
219 219 219 218 218 218 218 219 220 221 222 224 225 227 228 229 229 230 230 230 231 231 232 233 235 237 239 242 245 248 251 253 255 256 258 260 261 262 262 261 259 258 258 258 259 259 258 257 258 259 263 268 275 282 289 296 304 310 316 319 323 325 327 327 326 325 324 322 320
220 220 220 219 218 218 219 220 220 222 223 225 227 228 229 230 230 230 230 231 231 231 231 233 235 237 240 242 246 249 251 253 255 257 258 259 260 260 258 257 255 254 253 253 254 254 255 255 257 259 262 268 276 283 290 297 305 311 316 318 320 322 323 324 325 324 323 321 319
221 221 220 219 219 219 219 220 220 222 224 226 227 229 230 231 231 231 230 230 231 231 231 232 235 237 240 243 246 249 251 253 255 256 257 258 258 257 255 253 250 249 248 249 250 252 255 257 261 264 268 274 281 287 293 301 307 312 315 316 317 318 320 322 323 323 321 319 317
221 221 220 220 219 219 219 220 220 221 223 225 228 230 231 232 232 232 231 231 231 231 231 232 235 237 240 243 246 249 251 252 253 255 255 255 255 253 251 248 245 244 244 246 249 252 255 258 262 266 271 276 284 291 297 303 309 313 315 316 317 318 319 321 323 322 321 319 318
221 221 220 220 219 219 219 219 220 221 223 226 228 231 232 233 234 233 233 232 231 231 232 233 235 237 240 243 245 247 249 250 251 252 253 253 252 250 247 244 242 241 243 245 248 250 253 255 259 263 268 274 280 288 296 304 311 314 316 317 318 318 319 320 323 324 323 322 321
220 220 220 219 219 218 218 218 218 220 223 227 230 233 234 235 235 235 234 233 232 232 232 234 235 238 240 242 244 245 246 247 248 249 250 250 249 246 244 242 241 241 243 245 247 249 251 253 257 261 267 273 278 284 292 303 313 318 320 319 319 319 319 319 321 324 325 325 323
219 219 218 217 216 215 215 215 216 220 224 228 231 234 235 237 237 237 235 234 233 233 233 235 236 237 239 241 242 242 243 244 244 245 246 246 244 243 241 240 240 242 244 245 246 248 250 253 257 261 266 272 278 286 294 304 315 322 323 321 320 320 320 318 320 323 327 327 326
218 217 215 214 212 211 211 211 214 218 223 227 230 232 234 237 238 239 237 236 235 234 234 235 236 237 238 238 238 238 239 240 241 241 242 242 241 239 239 239 240 241 242 242 243 245 248 252 258 262 267 273 280 289 298 306 315 322 324 324 324 324 323 320 320 322 326 327 326
217 215 213 211 210 210 210 210 212 216 220 225 229 231 232 235 238 239 239 237 236 235 235 236 236 236 236 235 234 234 235 236 237 237 237 237 236 236 236 237 238 240 241 242 243 245 247 250 255 261 268 274 281 289 296 303 311 318 323 325 328 331 331 328 324 322 324 326 326
216 214 213 213 213 213 213 212 212 214 219 224 228 230 231 233 236 238 239 238 237 236 235 236 236 235 233 231 230 231 232 232 233 233 232 232 232 233 233 235 238 240 241 242 242 243 245 249 253 257 261 267 275 286 295 301 308 314 320 325 330 337 342 340 332 326 324 326 328
217 216 217 218 219 219 219 218 216 216 219 223 227 229 230 231 234 236 238 238 237 236 235 234 234 232 230 229 228 228 228 229 229 228 227 227 228 230 231 234 238 240 241 240 239 239 241 244 250 254 256 259 263 274 287 298 305 313 320 327 331 338 344 345 335 325 324 325 328
220 220 222 224 225 226 225 224 220 219 219 222 225 227 228 229 231 234 236 237 237 236 235 233 231 230 228 226 225 225 225 225 225 224 224 224 225 226 228 232 238 241 242 239 237 237 239 241 246 252 256 259 264 271 282 294 305 313 321 325 328 330 330 325 314 311 316 320 324
222 224 226 227 229 229 228 226 223 220 220 221 223 223 223 225 227 229 231 233 235 236 234 231 229 227 225 224 223 222 221 222 222 222 221 221 223 223 226 231 238 242 242 239 238 238 240 243 246 252 258 263 267 274 284 295 305 313 318 318 319 318 316 314 312 313 313 314 318
224 226 228 230 230 229 227 225 222 219 219 220 220 220 219 220 223 225 226 228 231 233 232 229 226 225 224 222 220 219 218 218 219 219 219 220 221 222 226 232 239 242 241 239 239 240 243 247 251 254 260 266 270 277 286 294 303 308 310 311 311 311 311 311 314 316 317 316 319
226 228 230 230 229 226 223 220 217 216 216 218 219 218 217 218 220 222 223 223 226 228 228 226 223 222 221 219 217 216 215 216 217 217 217 218 219 221 226 232 239 241 240 239 240 242 245 250 253 257 263 267 273 278 285 292 298 301 303 305 307 308 309 311 312 314 317 318 321
226 227 228 227 225 221 217 214 212 212 214 216 217 217 217 217 219 220 220 220 222 224 224 222 220 219 218 216 214 213 213 214 214 215 215 215 216 220 225 233 239 241 240 240 241 242 246 250 254 259 262 267 273 278 284 290 294 296 299 301 304 305 307 309 312 314 316 319 320
224 225 224 222 219 216 212 210 209 211 213 215 216 216 216 216 217 217 217 217 219 220 220 218 216 215 214 213 211 211 211 212 212 213 213 213 214 218 224 232 238 240 240 240 241 244 246 249 253 257 262 266 271 278 285 291 294 297 299 301 302 304 307 309 311 314 316 318 318
222 222 221 218 215 212 210 208 209 210 212 213 214 214 215 215 215 215 214 214 216 217 216 215 213 212 211 210 209 209 210 210 210 210 210 210 212 216 224 233 237 239 238 239 240 243 245 248 252 256 260 265 273 281 289 294 297 299 301 303 304 306 307 309 311 313 315 318 318
222 220 218 216 213 211 209 208 209 210 211 212 213 213 214 214 213 212 211 212 214 214 213 211 210 209 208 208 208 208 209 208 208 208 207 207 209 215 225 234 237 237 237 237 238 240 242 245 249 252 258 265 273 283 290 296 299 302 303 306 306 308 310 311 313 315 317 320 321
221 220 218 216 213 211 209 209 209 210 211 212 212 213 213 212 210 209 210 211 212 212 210 209 207 206 206 206 207 207 207 207 206 206 205 205 207 213 224 233 237 236 235 235 235 236 237 239 243 246 251 258 269 277 285 292 297 303 306 309 311 312 313 315 316 318 320 323 324
222 221 219 217 213 210 208 209 210 210 211 212 212 212 211 209 208 208 209 210 210 209 208 208 206 206 205 206 206 206 205 205 204 204 203 204 204 210 221 233 237 236 233 231 231 230 231 233 236 240 242 251 262 272 281 289 297 305 310 315 316 317 317 319 320 322 323 326 326
223 222 220 216 212 208 207 208 209 211 211 212 212 211 209 207 206 207 208 209 208 207 206 206 205 205 205 206 205 204 204 204 203 202 201 202 202 207 217 231 237 237 232 229 227 226 225 227 229 232 233 235 249 266 280 292 302 310 316 320 321 321 322 323 323 323 325 326 327
224 222 219 214 209 207 206 208 210 212 212 212 211 208 206 204 205 207 208 207 206 205 205 204 204 205 205 204 204 203 203 202 201 200 199 200 201 205 213 225 234 237 233 229 226 223 220 219 222 223 222 219 233 255 276 292 305 313 318 321 324 324 324 324 323 323 323 324 323
224 221 216 210 206 206 208 211 213 214 214 212 209 206 204 202 204 206 206 205 204 203 203 203 204 205 204 203 202 201 201 200 200 199 199 200 202 205 210 220 230 235 234 229 225 221 217 213 215 216 216 213 222 242 266 286 301 309 315 320 324 323 322 320 318 318 318 318 318
223 218 212 207 205 206 210 214 216 216 215 212 209 205 202 202 204 205 204 203 202 201 202 203 204 205 204 202 201 199 198 198 198 199 199 201 203 205 209 216 226 233 233 229 224 220 214 208 209 212 211 209 216 232 255 277 292 302 307 311 314 316 313 312 311 311 311 311 312
Height
1524 1524 1525 1526 1526 1527 1528 1528 1529 1530 1531 1531 1532 1532 1533 1533 1534 1534 1534 1534 1534 1534 1534 1534 1535 1535 1535 1535 1535 1535 1535 1535 1535 1536 1536 1536 1536 1536 1536 1536 1536 1535 1535 1535 1535 1534 1534 1534 1534 1534 1534 1534 1534 1534 1533 1533 1533 1533 1533 1533 1533 1533 1533 1532 1532 1532 1532 1532 1532
1523 1523 1524 1525 1525 1526 1527 1527 1528 1529 1529 1530 1531 1531 1532 1532 1533 1533 1533 1533 1533 1534 1534 1534 1534 1534 1534 1534 1534 1534 1535 1535 1535 1535 1535 1535 1535 1535 1535 1535 1535 1535 1534 1534 1534 1534 1534 1533 1533 1533 1533 1533 1533 1533 1533 1533 1532 1532 1532 1532 1532 1532 1532 1532 1532 1532 1532 1532 1532
1521 1522 1523 1524 1524 1525 1526 1526 1527 1528 1528 1529 1530 1530 1531 1531 1532 1532 1532 1532 1533 1533 1533 1533 1533 1533 1533 1534 1534 1534 1534 1534 1534 1534 1534 1535 1535 1535 1535 1534 1534 1534 1534 1534 1533 1533 1533 1533 1533 1532 1532 1532 1532 1532 1532 1532 1532 1532 1532 1532 1532 1532 1531 1531 1531 1531 1531 1531 1531
1520 1521 1522 1522 1523 1524 1525 1525 1526 1526 1527 1528 1528 1529 1530 1530 1531 1531 1531 1531 1531 1532 1532 1532 1532 1532 1532 1533 1533 1533 1533 1533 1533 1533 1533 1534 1534 1534 1534 1534 1534 1534 1533 1533 1532 1532 1532 1532 1532 1532 1531 1531 1531 1531 1531 1531 1531 1531 1531 1531 1531 1531 1531 1531 1531 1531 1531 1531 1531
1519 1520 1521 1521 1522 1522 1523 1524 1524 1525 1526 1526 1527 1528 1528 1529 1529 1530 1530 1530 1531 1531 1531 1531 1531 1531 1531 1532 1532 1532 1532 1532 1532 1532 1532 1533 1533 1533 1533 1533 1533 1533 1533 1532 1532 1531 1531 1531 1531 1531 1531 1531 1531 1531 1531 1531 1531 1531 1531 1531 1530 1530 1530 1530 1530 1530 1530 1530 1530
1518 1518 1519 1520 1521 1521 1522 1522 1523 1524 1524 1525 1526 1526 1527 1528 1528 1529 1529 1529 1529 1530 1530 1530 1530 1530 1531 1531 1531 1531 1531 1531 1531 1531 1532 1532 1532 1532 1532 1532 1532 1532 1532 1532 1531 1531 1531 1530 1530 1530 1530 1530 1530 1530 1530 1530 1530 1530 1530 1530 1530 1530 1530 1530 1529 1529 1529 1529 1529
1516 1517 1518 1518 1519 1520 1520 1521 1521 1522 1523 1524 1524 1525 1526 1526 1527 1527 1528 1528 1528 1528 1529 1529 1529 1529 1530 1530 1530 1530 1531 1531 1531 1531 1531 1531 1531 1531 1531 1532 1531 1531 1531 1531 1531 1530 1530 1530 1529 1529 1529 1529 1529 1529 1529 1529 1529 1529 1529 1529 1529 1529 1529 1529 1529 1529 1528 1528 1528
1515 1516 1516 1517 1518 1519 1519 1520 1521 1521 1522 1522 1523 1524 1524 1525 1526 1526 1526 1527 1527 1527 1527 1528 1528 1528 1528 1529 1529 1529 1529 1530 1530 1530 1530 1531 1531 1531 1531 1531 1531 1531 1531 1530 1530 1530 1529 1529 1529 1528 1528 1528 1528 1528 1528 1528 1528 1529 1529 1529 1529 1529 1529 1528 1528 1528 1528 1528 1527
1514 1514 1515 1516 1517 1518 1518 1519 1520 1520 1521 1521 1522 1523 1523 1524 1525 1525 1525 1526 1526 1526 1526 1526 1527 1527 1527 1527 1528 1528 1528 1529 1529 1529 1530 1530 1530 1530 1530 1530 1530 1530 1530 1529 1529 1529 1528 1528 1528 1528 1528 1528 1528 1528 1528 1528 1528 1528 1528 1528 1528 1528 1528 1528 1528 1527 1527 1527 1526
1512 1513 1514 1515 1516 1516 1517 1518 1519 1519 1520 1520 1521 1521 1522 1523 1523 1524 1524 1524 1525 1525 1525 1525 1526 1526 1526 1526 1526 1527 1527 1528 1528 1529 1529 1529 1529 1529 1529 1529 1529 1529 1529 1529 1528 1528 1528 1527 1527 1527 1527 1527 1527 1527 1527 1527 1527 1527 1527 1527 1527 1527 1527 1527 1527 1527 1526 1526 1526
1511 1512 1513 1513 1514 1515 1516 1517 1517 1518 1519 1519 1520 1521 1521 1522 1522 1523 1523 1523 1523 1524 1524 1524 1524 1525 1525 1525 1526 1526 1526 1527 1527 1528 1528 1528 1528 1528 1528 1528 1528 1528 1528 1528 1528 1527 1527 1526 1526 1526 1526 1526 1526 1526 1526 1526 1526 1526 1526 1526 1526 1526 1526 1526 1526 1526 1526 1526 1525
1510 1511 1511 1512 1513 1514 1515 1516 1516 1517 1517 1518 1519 1520 1520 1521 1521 1521 1522 1522 1522 1522 1523 1523 1523 1523 1524 1524 1525 1525 1525 1526 1526 1527 1527 1527 1527 1527 1527 1527 1527 1527 1527 1527 1527 1526 1526 1526 1526 1526 1525 1525 1525 1525 1525 1525 1525 1525 1525 1525 1526 1526 1526 1526 1526 1525 1525 1525 1524
1508 1509 1510 1511 1511 1512 1513 1514 1515 1516 1516 1517 1518 1519 1519 1519 1520 1520 1521 1521 1521 1521 1522 1522 1522 1522 1523 1523 1524 1524 1524 1525 1526 1526 1526 1526 1526 1526 1526 1526 1527 1527 1526 1526 1526 1526 1526 1525 1525 1525 1525 1525 1524 1524 1524 1524 1524 1524 1524 1524 1524 1525 1525 1525 1525 1524 1524 1524 1524
1507 1508 1509 1509 1510 1511 1512 1513 1514 1515 1515 1516 1517 1517 1518 1518 1519 1519 1520 1520 1520 1521 1521 1521 1521 1521 1522 1522 1523 1523 1523 1524 1524 1525 1525 1525 1526 1526 1526 1526 1526 1526 1526 1526 1525 1525 1525 1525 1524 1524 1524 1524 1524 1523 1523 1523 1523 1523 1523 1523 1523 1523 1524 1524 1524 1523 1523 1523 1523
1506 1506 1507 1508 1509 1510 1511 1511 1512 1513 1514 1515 1515 1516 1516 1517 1518 1518 1518 1519 1519 1519 1520 1520 1520 1521 1521 1521 1522 1522 1522 1523 1523 1524 1524 1524 1524 1525 1525 1525 1525 1526 1525 1525 1525 1524 1524 1524 1523 1523 1523 1523 1523 1523 1523 1522 1522 1522 1522 1522 1522 1522 1523 1523 1523 1522 1522 1522 1522
1504 1505 1506 1506 1507 1508 1509 1510 1511 1512 1512 1513 1514 1515 1515 1516 1516 1517 1517 1518 1518 1518 1518 1519 1519 1519 1520 1520 1521 1521 1521 1522 1522 1522 1523 1523 1523 1524 1524 1524 1525 1525 1525 1524 1524 1524 1523 1523 1523 1523 1523 1522 1522 1522 1522 1522 1522 1521 1521 1521 1521 1522 1522 1522 1522 1521 1521 1521 1521
1502 1503 1504 1505 1506 1507 1508 1509 1510 1510 1511 1512 1512 1513 1514 1515 1515 1516 1516 1516 1517 1517 1517 1518 1518 1518 1519 1519 1520 1520 1520 1521 1521 1521 1522 1522 1522 1523 1523 1524 1524 1524 1524 1524 1523 1523 1523 1522 1522 1522 1522 1522 1522 1521 1521 1521 1521 1521 1521 1521 1521 1521 1521 1521 1521 1521 1521 1520 1520
1501 1502 1503 1504 1505 1506 1507 1508 1508 1509 1510 1511 1511 1512 1512 1513 1514 1514 1515 1515 1516 1516 1516 1516 1517 1517 1517 1518 1518 1519 1519 1519 1520 1520 1521 1521 1521 1522 1522 1523 1523 1523 1523 1523 1523 1522 1522 1522 1522 1522 1521 1521 1521 1521 1521 1520 1520 1520 1520 1520 1520 1520 1520 1520 1520 1520 1520 1520 1519
1499 1500 1501 1502 1503 1504 1505 1506 1507 1508 1508 1509 1510 1511 1511 1512 1513 1513 1514 1514 1514 1515 1515 1515 1516 1516 1516 1517 1517 1517 1518 1518 1518 1519 1519 1520 1520 1521 1521 1522 1522 1523 1523 1522 1522 1522 1521 1521 1521 1521 1521 1521 1520 1520 1520 1519 1519 1519 1519 1519 1519 1519 1519 1519 1519 1519 1519 1518 1518
1497 1498 1500 1501 1502 1503 1503 1504 1505 1506 1507 1508 1509 1509 1510 1511 1512 1512 1513 1513 1513 1513 1513 1514 1514 1515 1515 1516 1516 1516 1516 1517 1517 1517 1518 1519 1519 1520 1521 1521 1521 1522 1522 1522 1521 1521 1521 1521 1521 1521 1521 1520 1520 1520 1519 1519 1519 1518 1518 1518 1518 1518 1518 1518 1518 1518 1517 1517 1517
1495 1496 1497 1499 1500 1501 1502 1503 1504 1505 1506 1506 1507 1508 1509 1510 1511 1511 1511 1512 1512 1512 1512 1513 1513 1513 1514 1514 1514 1515 1515 1516 1516 1516 1517 1517 1518 1519 1520 1520 1521 1521 1521 1521 1521 1521 1521 1521 1521 1520 1520 1520 1519 1519 1518 1518 1518 1518 1517 1517 1517 1517 1517 1517 1517 1516 1516 1516 1516
1493 1494 1496 1497 1498 1499 1500 1501 1502 1503 1504 1506 1507 1508 1509 1509 1510 1510 1511 1511 1511 1511 1511 1511 1512 1512 1512 1513 1513 1513 1514 1514 1515 1515 1516 1516 1517 1518 1518 1519 1520 1520 1520 1520 1520 1520 1520 1520 1520 1520 1520 1519 1519 1518 1518 1517 1517 1517 1516 1516 1516 1516 1516 1516 1516 1516 1515 1515 1515
1491 1492 1494 1495 1496 1497 1498 1499 1500 1501 1503 1505 1506 1507 1508 1508 1509 1509 1509 1510 1510 1510 1510 1511 1511 1511 1511 1511 1511 1512 1512 1513 1513 1514 1515 1515 1516 1516 1517 1518 1518 1519 1519 1519 1519 1520 1520 1520 1519 1519 1519 1519 1518 1518 1517 1517 1516 1516 1516 1516 1515 1515 1515 1515 1515 1514 1514 1514 1513
1490 1491 1491 1493 1494 1495 1496 1497 1498 1500 1501 1503 1504 1506 1506 1507 1508 1508 1508 1508 1509 1509 1509 1509 1510 1510 1510 1510 1510 1511 1511 1511 1512 1512 1513 1514 1515 1515 1516 1517 1517 1518 1518 1518 1518 1519 1519 1519 1519 1518 1518 1518 1517 1517 1516 1516 1516 1516 1515 1515 1514 1514 1513 1513 1513 1513 1513 1513 1513
1488 1489 1490 1490 1491 1492 1493 1494 1496 1497 1499 1501 1502 1504 1505 1506 1506 1507 1507 1507 1507 1508 1508 1508 1508 1509 1509 1509 1509 1509 1510 1510 1510 1511 1512 1512 1513 1514 1515 1516 1516 1516 1517 1517 1517 1518 1518 1518 1518 1518 1517 1517 1517 1516 1516 1516 1515 1515 1514 1514 1513 1513 1513 1512 1512 1512 1512 1512 1512
1486 1487 1487 1488 1489 1490 1491 1492 1493 1495 1496 1498 1500 1501 1503 1504 1505 1506 1506 1506 1506 1506 1507 1507 1507 1507 1508 1508 1508 1508 1508 1508 1509 1510 1510 1511 1512 1513 1514 1514 1515 1515 1516 1516 1517 1517 1517 1517 1517 1517 1517 1517 1516 1516 1515 1515 1514 1514 1513 1513 1513 1513 1512 1512 1511 1511 1511 1511 1511
1485 1485 1486 1486 1487 1488 1489 1490 1491 1493 1495 1496 1498 1500 1501 1502 1503 1504 1504 1505 1505 1505 1506 1506 1506 1506 1506 1507 1507 1507 1507 1507 1508 1508 1509 1510 1511 1512 1512 1513 1513 1514 1514 1515 1516 1516 1516 1516 1516 1516 1516 1516 1516 1515 1515 1514 1513 1513 1513 1512 1512 1512 1512 1512 1512 1512 1511 1510 1510
1483 1484 1484 1485 1486 1486 1487 1488 1490 1491 1492 1494 1496 1497 1499 1500 1501 1502 1503 1503 1504 1504 1504 1505 1505 1506 1506 1506 1506 1506 1506 1506 1506 1507 1508 1509 1510 1511 1511 1512 1512 1512 1513 1514 1515 1515 1515 1515 1515 1515 1515 1515 1515 1514 1514 1513 1513 1512 1512 1512 1512 1512 1512 1512 1512 1511 1511 1510 1510
1481 1481 1482 1483 1484 1484 1485 1486 1487 1489 1490 1492 1493 1494 1496 1497 1499 1500 1501 1502 1502 1503 1503 1503 1504 1504 1505 1505 1505 1505 1505 1505 1506 1506 1507 1508 1509 1509 1510 1510 1511 1511 1512 1513 1513 1514 1514 1514 1514 1514 1514 1514 1513 1513 1513 1512 1512 1511 1511 1511 1511 1511 1511 1511 1511 1511 1510 1510 1510
1478 1479 1480 1481 1481 1482 1482 1483 1484 1486 1487 1489 1491 1492 1493 1494 1496 1497 1499 1500 1501 1501 1502 1502 1502 1503 1503 1503 1504 1504 1504 1504 1505 1505 1506 1506 1507 1508 1508 1509 1509 1510 1511 1512 1512 1512 1513 1513 1513 1513 1512 1512 1512 1512 1512 1511 1511 1511 1511 1510 1510 1510 1510 1510 1510 1510 1510 1509 1509
1475 1476 1477 1478 1478 1479 1480 1481 1481 1483 1485 1486 1488 1489 1491 1492 1493 1495 1496 1498 1499 1500 1500 1501 1501 1501 1502 1502 1502 1503 1503 1503 1504 1504 1505 1506 1506 1507 1507 1508 1508 1509 1510 1511 1511 1511 1511 1511 1511 1511 1511 1511 1511 1511 1511 1511 1510 1510 1510 1509 1509 1509 1509 1509 1509 1508 1508 1508 1508
1471 1472 1473 1474 1475 1476 1477 1478 1479 1481 1482 1484 1486 1487 1488 1490 1491 1493 1495 1496 1497 1498 1499 1499 1500 1500 1501 1501 1501 1502 1502 1502 1503 1503 1504 1505 1505 1506 1506 1506 1507 1508 1509 1509 1510 1510 1510 1511 1511 1511 1510 1510 1510 1510 1510 1509 1509 1509 1509 1508 1508 1508 1508 1507 1507 1507 1507 1507 1507
1468 1468 1469 1471 1472 1474 1476 1477 1478 1479 1480 1482 1483 1485 1486 1488 1489 1491 1492 1494 1495 1496 1497 1497 1498 1498 1499 1499 1500 1501 1501 1501 1502 1502 1503 1504 1504 1505 1505 1505 1506 1506 1507 1508 1508 1509 1509 1509 1509 1509 1509 1509 1509 1509 1509 1508 1508 1508 1507 1507 1507 1507 1507 1506 1506 1506 1506 1506 1506
1465 1466 1467 1468 1471 1472 1474 1475 1476 1477 1479 1480 1482 1483 1485 1486 1488 1489 1491 1492 1493 1495 1495 1496 1496 1497 1497 1498 1499 1499 1500 1500 1501 1501 1502 1502 1503 1503 1504 1504 1505 1505 1506 1507 1507 1508 1508 1508 1508 1508 1508 1508 1508 1508 1508 1507 1507 1507 1506 1506 1506 1506 1506 1506 1505 1505 1505 1505 1505
1463 1464 1466 1468 1470 1471 1473 1474 1475 1476 1477 1479 1480 1482 1483 1485 1486 1487 1489 1490 1492 1493 1494 1495 1495 1496 1496 1497 1497 1498 1499 1499 1500 1500 1501 1501 1502 1502 1503 1503 1504 1504 1505 1506 1506 1506 1507 1507 1507 1507 1507 1507 1507 1507 1507 1506 1506 1506 1506 1505 1505 1505 1505 1504 1504 1504 1504 1504 1504
1461 1463 1465 1467 1469 1471 1472 1473 1474 1475 1476 1478 1479 1481 1481 1483 1484 1486 1487 1489 1491 1491 1492 1493 1494 1494 1495 1495 1496 1497 1497 1498 1499 1499 1500 1500 1501 1501 1502 1502 1502 1503 1504 1505 1505 1506 1506 1506 1506 1506 1506 1506 1506 1506 1506 1506 1505 1505 1505 1504 1504 1504 1503 1503 1503 1503 1503 1503 1503
1460 1462 1464 1466 1467 1469 1471 1472 1473 1475 1476 1477 1478 1479 1480 1481 1483 1485 1486 1488 1489 1490 1491 1492 1492 1493 1493 1494 1495 1496 1496 1497 1498 1498 1499 1499 1500 1501 1501 1501 1501 1502 1503 1504 1504 1504 1505 1505 1505 1505 1505 1505 1505 1505 1505 1505 1504 1504 1504 1503 1503 1503 1502 1502 1502 1502 1502 1502 1501
1459 1461 1462 1464 1466 1467 1469 1471 1472 1474 1475 1476 1477 1477 1479 1480 1481 1483 1485 1486 1488 1489 1490 1491 1491 1492 1492 1493 1494 1495 1495 1496 1496 1497 1497 1498 1499 1500 1500 1500 1501 1501 1502 1502 1503 1503 1504 1504 1504 1504 1504 1504 1504 1504 1504 1504 1503 1503 1503 1502 1502 1502 1501 1501 1501 1501 1501 1501 1501
1456 1458 1460 1462 1464 1466 1468 1470 1472 1473 1474 1475 1475 1476 1477 1479 1480 1482 1484 1485 1486 1487 1488 1490 1490 1491 1491 1492 1493 1493 1494 1495 1495 1496 1496 1497 1498 1498 1499 1499 1500 1500 1501 1501 1502 1502 1502 1503 1503 1503 1503 1503 1503 1503 1503 1503 1502 1502 1502 1502 1501 1501 1501 1501 1501 1500 1500 1500 1500
1454 1456 1458 1461 1464 1466 1468 1470 1471 1472 1473 1474 1474 1475 1476 1477 1479 1481 1482 1484 1485 1486 1487 1489 1489 1490 1491 1491 1491 1492 1493 1493 1494 1495 1495 1496 1496 1497 1498 1498 1498 1499 1500 1500 1501 1501 1501 1502 1502 1502 1502 1502 1502 1502 1502 1502 1501 1501 1501 1501 1501 1501 1501 1500 1500 1500 1499 1499 1499
1452 1455 1458 1462 1464 1466 1468 1469 1471 1472 1472 1473 1473 1474 1475 1476 1478 1480 1481 1482 1484 1485 1486 1487 1488 1489 1490 1490 1491 1491 1491 1492 1493 1493 1494 1495 1495 1496 1496 1497 1497 1498 1498 1499 1500 1500 1501 1501 1501 1501 1501 1501 1501 1501 1501 1501 1501 1501 1500 1500 1500 1500 1500 1500 1500 1499 1499 1499 1498